This demonstration page uses our WeatherBlox Daily Observations layout. Learn more.

Left ArrowRight Arrow

31.84235, -102.49876

Hourly Observations for March 16, 2022

Temp ( °F °C ) Dew Point ( °F °C ) Humidity (%) Winds ( mph kmh ) Pressure ( in mb ) Visibility ( mi km ) Precip ( " mm )
12:53 am 00:53 Clear 54 12.2 14 -10 20 20 S 9 15 30.04 1017 10 16 0.00 0.00
1:53 am 01:53 Clear 53 11.7 16 -8.9 23 23 S 10 17 30.02 1017 10 16 0.00 0.00
2:53 am 02:53 Clear 52 11.1 16 -8.9 24 24 S 9 15 29.99 1016 10 16 0.00 0.00
3:53 am 03:53 Clear 51 10.6 15 -9.4 24 24 S 8 13 29.97 1015 10 16 0.00 0.00
4:53 am 04:53 Clear 49 9.4 15 -9.4 26 26 SSW 6 9 29.95 1014 10 16 0.00 0.00
5:53 am 05:53 Clear 48 8.9 15 -9.4 27 27 SSW 7 11 29.93 1014 10 16 0.00 0.00
6:53 am 06:53 Clear 48 8.9 15 -9.4 27 27 SSW 7 11 29.93 1014 10 16 0.00 0.00
7:53 am 07:53 Clear 47 8.3 15 -9.4 28 28 SSW 8 13 29.94 1014 10 16 0.00 0.00
8:53 am 08:53 Sunny 55 12.8 16 -8.9 21 21 SSW 14 22 29.94 1014 10 16 0.00 0.00
9:53 am 09:53 Sunny 60 15.6 19 -7.2 20 20 S 18 30 29.94 1014 10 16 0.00 0.00
10:53 am 10:53 Sunny 66 18.9 20 -6.7 17 17 S 16 26 29.93 1014 10 16 0.00 0.00
11:53 am 11:53 Sunny 71 21.7 20 -6.7 14 14 SSW 15 24 29.91 1013 10 16 0.00 0.00
12:53 pm 12:53 Sunny 75 23.9 18 -7.8 11 11 S 12 19 29.86 1011 10 16 0.00 0.00
1:53 pm 13:53 Sunny 79 26.1 17 -8.3 10 10 SSW 14 22 29.82 1010 10 16 0.00 0.00
2:53 pm 14:53 Sunny 80 26.7 16 -8.9 9 9 S 12 19 29.77 1008 10 16 0.00 0.00
3:53 pm 15:53 Sunny 82 27.8 15 -9.4 8 8 S 9 15 29.73 1007 10 16 0.00 0.00
4:53 pm 16:53 Sunny 83 28.3 13 -10.6 7 7 WSW 8 13 29.70 1006 10 16 0.00 0.00
5:53 pm 17:53 Sunny 85 29.4 11 -11.7 6 6 SW 15 24 29.66 1004 10 16 0.00 0.00
6:53 pm 18:53 Sunny 82 27.8 13 -10.6 7 7 SSW 10 17 29.65 1004 10 16 0.00 0.00
7:53 pm 19:53 Sunny 77 25 15 -9.4 9 9 S 16 26 29.67 1005 10 16 0.00 0.00
8:53 pm 20:53 Clear 72 22.2 15 -9.4 11 11 SSE 15 24 29.67 1005 10 16 0.00 0.00
9:53 pm 21:53 Clear 70 21.1 16 -8.9 12 12 SSE 16 26 29.67 1005 10 16 0.00 0.00
10:53 pm 22:53 Clear 67 19.4 16 -8.9 14 14 SSE 10 17 29.65 1004 10 16 0.00 0.00
11:53 pm 23:53 Clear 63 17.2 16 -8.9 16 16 SSE 12 19 29.64 1004 10 16 0.00 0.00

Powered by AerisWeather